Location: Carbonear
(47.7333°N, 53.2500°W)
Time: 17:08:09
(UTC+00:00)

CUTE-I - Pass Details

Date: 09 December 2022
Orbit: 809 x 824 km, 98.7° (Epoch: 05 February)

Event Time Altitude Azimuth Distance (km) Brightness Sun altitude
Rises 20:31:57 0° 155° (SSE) 3,327 ? -8.3°
Reaches altitude 10° 20:34:17 10° 153° (SSE) 2,401 ? -8.6°
Maximum altitude 20:39:33 68° 72° (ENE) 884 ? -9.5°
Drops below altitude 10° 20:44:53 10° 350° (N) 2,428 ? -10.3°
Sets 20:47:16 0° 348° (NNW) 3,367 ? -10.6°
